Tracking 18984 objects as of 24-Feb-2018
HD Live streaming from Space Station
objects crossing your sky now

FENGYUN 1C DEB

Track FENGYUN 1C DEB now!
10-day predictions


NORAD ID: 30286
Int'l Code: 1999-025YX
Perigee: 814.1 km
Apogee: 906.4 km
Inclination: 98.9 °
Period: 102.0 minutes
Semi major axis: 7231 km
RCS: 0.069 m2 (small)
Launch date: May 10, 1999
Source: People's Republic of China (PRC)
Launch site: Taiyaun Space Center, China (TSC)

Note: This is SATELLITE DEBRIS
aabbcc
Your satellite tracking list
Your tracking list is empty




NASA's NSSDC Master Catalog

Two Line Element Set (TLE):
1 30286U 99025YX  18055.04665602 -.00000027 +00000-0 +98484-5 0  9990
2 30286 098.9007 083.6665 0063803 300.2443 112.7119 14.11835890572550
Source of the keplerian elements: AFSPC